Retour au catalogue

COSMOS 2251 DEB

ActifLEO
NORAD 34918·DEBRIS·🇷🇺 Russia

Lancé Jun 16, 1993 depuis Plesetsk Cosmodrome

Loading…

Prochains Passages (prochaines 24 heures)

TLE

PériméSource: Space-Track

Époque: Aug 15, 2026, 16:52 UTC

1 34918U 93036ADP 26227.70298993  .00002719  00000-0  51698-3 0  9993
2 34918  74.0678 202.9076 0024141 109.7617  64.5438 14.64452219689335

Suivez COSMOS 2251 DEB en temps réel avec AllMySat

Download on the App Store